Weather in Vagator

India     15°35′46″N   73°44′33″E
temp.,
°C
wind,
m/s
gust,
m/s
humid.,
%
clouds,
%
prec.,
mm/h
press.,
hPa
HPBL,
m
12 may, wed
wed1223:30+30nw3473100 0.0 1008599
02:30+29n1271100 0.0 1007573
05:30+28ne2276100 0.0 1006267
08:30+29n1172100 0.0 1008382
11:30+29wnw4471100 0.0 1007589
14:30+30wnw6668100 0.0 1005573
17:30+30wnw6671100 0.0 1004815
20:30+30wnw457286 0.0 1006730
13 may, thu
thu1323:30+29nw447388 0.0 1006685
02:30+29nw3475100 0.1 1005640
05:30+29nnw3476100 0.2 1005493
08:30+30n2371100 0.2 1007480
11:30+30w5468100 0.2 1006639
14:30+31wnw7668100 0.0 1003482
17:30+30nw6669100 0.0 1002701
20:30+30nw6772100 0.3 1004564
14 may, fri
fri1423:30+30nnw447149 0.3 1004576
02:30+29n227230 0.0 1002484
05:30+28ne2174100 0.0 1003277
08:30+29ne2268100 0.1 1005356
11:30+30wsw337012 0.6 1004548
14:30+30wsw3371100 1.3 1002423
17:30+30w3369100 1.7 1002636
20:30+29nnw3477100 1.6 1003302
15 may, sat
sat1523:30+29nnw2275100 1.6 1003396
02:30+28nne1176100 0.0 1000305
05:30+28n6779100 0.0 999347
08:30+29nne4573100 0.0 1000235
11:30+30ene2263100 0.0 1000229
14:30+33se5752100 0.0 996539
17:30+28ene71576100 2.1 9971054
20:30+29e91665100 0.0 9961017
16 may, sun
sun1623:30+29e112070100 1.6 9981325
02:30+29ese132069100 0.4 9941293
05:30+28ese142575100 6.5 9941772
08:30+28se152778100 5.8 9951829
11:30+27se172785100 20.4 9951763
14:30+27se192789100 32.2 9961810
17:30+27sse182489100 44.7 9961602
20:30+28sse172386100 8.8 10001681